Location: Hilton Head Island
(32.2163°N, 80.7526°W)
Time: 04:04:50
(UTC-04:00)

Transit 2A Rocket - Pass Details

Date: 08 February 2026
Orbit: 583 x 900 km, 66.7° (Epoch: 12 March)

Event Time Altitude Azimuth Distance (km) Brightness Sun altitude
Rises 17:43:13 0° 193° (SSW) 3,384 8.8 3.2°
Reaches altitude 10° 17:45:39 10° 189° (S) 2,487 8.1 2.7°
Maximum altitude 17:51:21 58° 112° (ESE) 1,031 5.5 1.5°
Drops below altitude 10° 17:57:15 10° 34° (NE) 2,577 7.3 0.4°
Sets 17:59:49 0° 31° (NNE) 3,517 8.0 -0.2°
